Date String (YYYY-MM-DD hh:mm:ss) UTC,Instrument flags,absolute air pressure of the measurement (hPa),sample flow rate (lpm),inlet stack bypass flow (lpm),air temperature of the measurement (°C),ambient temperature measured by the external sensor (°C),aerosol sample conditioner tube jacket temperature (°C),OPC LED temperature (°C),internal box temperature (°C),relative humidity of the measurement (%),span deviation,mass concentration of particles derived from Lorenz-Mie calculation of OPC scattering (μg/m³),mass concentration of particles derived from Lorenz-Mie calculation of OPC scattering (μg/m³),mass concentration of particles derived from Lorenz-Mie calculation of OPC scattering (μg/m³)
DateTimeUTC,F1_M11,P_M11,Q1_M11,Q2_M11,T1_M11,T2_M11,T3_M11,T4_M11,T5_M11,U1_M11,ZSPAN_M11,X0_M11,X2_M11,X1_M11
2023-09-22 11:00:00,SystemResetWarning,0829.6,5.00,000.00,028.8,027.2,000.0,037.2,030.3,22.1,0000.0,0010.05,0004.48,0003.75
2023-09-22 11:01:00,SystemResetWarning,0829.6,4.99,000.00,028.8,027.2,000.0,037.2,030.3,22.2,0000.0,0010.69,0004.49,0003.77
2023-09-22 11:02:00,SystemResetWarning,0829.6,4.99,000.00,028.8,027.2,000.0,037.2,030.3,22.3,0000.0,0010.55,0004.52,0003.81
2023-09-22 11:03:00,SystemResetWarning,0829.6,5.00,000.00,028.8,027.2,000.0,037.2,030.3,22.3,0000.0,0010.60,0004.55,0003.86
2023-09-22 11:04:00,SystemResetWarning,0829.6,5.01,000.00,028.8,027.2,000.0,037.2,030.3,22.4,0000.0,0010.87,0004.65,0003.92
2023-09-22 11:05:00,SystemResetWarning,0829.7,5.00,000.00,028.8,027.1,000.0,037.2,030.3,22.5,0000.0,0010.76,0004.73,0003.98
2023-09-22 11:06:00,SystemResetWarning,0829.7,5.01,000.00,028.8,027.1,000.0,037.2,030.3,22.5,0000.0,0010.69,0004.78,0004.00
2023-09-22 11:07:00,SystemResetWarning,0829.7,5.00,000.00,028.8,027.1,000.0,037.2,030.3,22.5,0000.0,0010.69,0004.79,0004.01
2023-09-22 11:08:00,SystemResetWarning,0829.6,5.00,000.00,028.8,027.1,000.0,037.2,030.3,22.6,0000.0,0010.52,0004.73,0003.99
2023-09-22 11:09:00,SystemResetWarning,0829.6,5.00,000.00,028.8,027.2,000.0,037.2,030.3,22.6,0000.0,0010.18,0004.68,0003.98
2023-09-22 11:10:00,SystemResetWarning,0829.6,4.99,000.00,028.8,027.2,000.0,037.2,030.3,22.6,0000.0,0009.57,0004.67,0003.98
2023-09-22 11:11:00,SystemResetWarning,0829.6,4.99,000.00,028.7,027.2,000.0,037.2,030.3,22.6,0000.0,0009.53,0004.68,0003.97
2023-09-22 11:12:00,SystemResetWarning,0829.6,4.99,000.00,028.7,027.2,000.0,037.2,030.3,22.7,0000.0,0008.50,0004.68,0003.96
2023-09-22 11:13:00,SystemResetWarning,0829.6,5.02,000.00,028.7,027.2,000.0,037.2,030.3,22.7,0000.0,0008.55,0004.68,0003.96
2023-09-22 11:14:00,SystemResetWarning,0829.7,5.01,000.00,028.8,027.2,000.0,037.1,030.3,23.3,0000.0,0008.61,0004.71,0003.93
2023-09-22 11:15:00,SystemResetWarning,0829.7,4.99,000.00,028.8,027.1,000.0,037.1,030.3,23.7,0000.0,0008.51,0004.68,0003.91
2023-09-22 11:16:00,SystemResetWarning,0829.7,5.00,000.00,028.8,027.1,000.0,037.1,030.3,24.0,0000.0,0008.60,0004.67,0003.89
2023-09-22 11:17:00,SystemResetWarning,0829.7,5.00,000.00,028.8,027.2,000.0,037.2,030.3,24.2,0000.0,0008.85,0004.66,0003.89
2023-09-22 11:18:00,SystemResetWarning,0829.7,5.00,000.00,028.7,027.2,000.0,037.2,030.3,24.2,0000.0,0009.14,0004.68,0003.91
2023-09-22 11:19:00,SystemResetWarning,0829.7,5.00,000.00,028.7,027.2,000.0,037.2,030.3,23.9,0000.0,0009.29,0004.75,0003.94
2023-09-22 11:20:00,SystemResetWarning,0829.7,5.00,000.00,028.7,027.2,000.0,037.2,030.3,23.4,0000.0,0009.39,0004.79,0003.96
2023-09-22 11:21:00,SystemResetWarning,0829.7,5.01,000.00,028.7,027.2,000.0,037.2,030.3,23.0,0000.0,0009.38,0004.79,0003.96
2023-09-22 11:22:00,SystemResetWarning,0829.7,5.00,000.00,028.7,027.1,000.0,037.2,030.3,23.0,0000.0,0009.42,0004.82,0003.99
2023-09-22 11:23:00,SystemResetWarning,0829.7,5.00,000.00,028.7,027.1,000.0,037.2,030.3,23.1,0000.0,0009.58,0004.86,0004.02
2023-09-22 11:24:00,SystemResetWarning,0829.7,4.99,000.00,028.7,027.1,000.0,037.2,030.3,23.1,0000.0,0009.63,0004.87,0004.03
2023-09-22 11:25:00,SystemResetWarning,0829.7,5.00,000.00,028.7,027.1,000.0,037.2,030.3,23.3,0000.0,0010.09,0004.85,0004.02
2023-09-22 11:26:00,SystemResetWarning,0829.7,5.00,000.00,028.7,027.1,000.0,037.2,030.3,23.2,0000.0,0010.50,0004.87,0004.02
2023-09-22 11:27:00,SystemResetWarning,0829.7,5.00,000.00,028.7,027.1,000.0,037.2,030.3,23.3,0000.0,0010.71,0004.90,0004.03
2023-09-22 11:28:00,SystemResetWarning,0829.7,4.99,000.00,028.7,027.1,000.0,037.1,030.3,23.4,0000.0,0010.45,0004.90,0004.02
2023-09-22 11:29:00,SystemResetWarning,0829.7,5.00,000.00,028.7,027.1,000.0,037.2,030.2,23.3,0000.0,0010.03,0004.87,0004.02
2023-09-22 11:30:00,SystemResetWarning,0829.7,5.01,000.00,028.7,027.1,000.0,037.2,030.2,23.0,0000.0,0010.04,0004.88,0004.02
2023-09-22 11:31:00,SystemResetWarning,0829.7,5.00,000.00,028.7,027.1,000.0,037.1,030.2,22.7,0000.0,0010.31,0004.93,0004.03
2023-09-22 11:32:00,SystemResetWarning,0829.7,5.00,000.00,028.7,027.1,000.0,037.1,030.2,22.6,0000.0,0010.32,0004.92,0004.00
2023-09-22 11:33:00,SystemResetWarning,0829.7,5.00,000.00,028.7,027.1,000.0,037.1,030.3,22.7,0000.0,0010.29,0004.84,0003.96
2023-09-22 11:34:00,SystemResetWarning,0829.7,5.00,000.00,028.7,027.1,000.0,037.2,030.2,22.8,0000.0,0010.26,0004.81,0003.94
2023-09-22 11:35:00,SystemResetWarning,0829.7,5.00,000.00,028.7,027.1,000.0,037.1,030.2,22.8,0000.0,0010.84,0004.77,0003.93
2023-09-22 11:36:00,SystemResetWarning,0829.7,5.00,000.00,028.7,027.1,000.0,037.1,030.2,22.9,0000.0,0011.33,0004.81,0003.93
2023-09-22 11:37:00,SystemResetWarning,0829.7,5.00,000.00,028.7,027.1,000.0,037.1,030.2,23.2,0000.0,0011.17,0004.76,0003.92
2023-09-22 11:38:00,SystemResetWarning,0829.7,5.00,000.00,028.7,027.1,000.0,037.1,030.2,23.1,0000.0,0011.48,0004.73,0003.90
2023-09-22 11:39:00,SystemResetWarning,0829.7,5.00,000.00,028.7,027.1,000.0,037.1,030.2,23.1,0000.0,0011.50,0004.72,0003.89
2023-09-22 11:40:00,SystemResetWarning,0829.7,5.00,000.00,028.7,027.1,000.0,037.1,030.2,23.0,0000.0,0012.40,0004.76,0003.88
2023-09-22 11:41:00,SystemResetWarning,0829.7,5.00,000.00,028.7,027.1,000.0,037.1,030.2,23.1,0000.0,0012.47,0004.73,0003.86
2023-09-22 11:42:00,SystemResetWarning,0829.7,5.00,000.00,028.7,027.1,000.0,037.1,030.2,23.1,0000.0,0012.26,0004.67,0003.84
2023-09-22 11:43:00,SystemResetWarning,0829.7,5.00,000.00,028.7,027.1,000.0,037.1,030.2,23.1,0000.0,0012.39,0004.66,0003.85
2023-09-22 11:44:00,SystemResetWarning,0829.7,5.00,000.00,028.7,027.1,000.0,037.1,030.2,23.1,0000.0,0012.23,0004.66,0003.86
2023-09-22 11:45:00,SystemResetWarning,0829.7,5.00,000.00,028.7,027.1,000.0,037.1,030.2,23.1,0000.0,0012.59,0004.71,0003.87
2023-09-22 11:46:00,SystemResetWarning,0829.7,5.00,000.00,028.7,027.1,000.0,037.1,030.2,23.0,0000.0,0013.10,0004.75,0003.88
2023-09-22 11:47:00,SystemResetWarning,0829.7,5.00,000.00,028.7,027.1,000.0,037.1,030.2,22.9,0000.0,0012.42,0004.72,0003.87
2023-09-22 11:48:00,SystemResetWarning,0829.6,5.00,000.00,028.7,027.1,000.0,037.1,030.2,22.8,0000.0,0011.87,0004.72,0003.88
2023-09-22 11:49:00,SystemResetWarning,0829.7,5.00,000.00,028.7,027.1,000.0,037.1,030.2,22.7,0000.0,0011.35,0004.71,0003.89
2023-09-22 11:50:00,SystemResetWarning,0829.7,5.00,000.00,028.7,027.1,000.0,037.1,030.2,22.7,0000.0,0011.77,0004.72,0003.91
2023-09-22 11:51:00,SystemResetWarning,0829.6,5.00,000.00,028.7,027.1,000.0,037.1,030.2,22.7,0000.0,0011.29,0004.75,0003.94
2023-09-22 11:52:00,SystemResetWarning,0829.7,4.99,000.00,028.7,027.1,000.0,037.1,030.2,22.7,0000.0,0011.72,0004.78,0003.99
2023-09-22 11:53:00,SystemResetWarning,0829.7,5.00,000.00,028.7,027.1,000.0,037.1,030.2,22.6,0000.0,0012.26,0004.87,0004.06
2023-09-22 11:54:00,SystemResetWarning,0829.7,5.00,000.00,028.7,027.1,000.0,037.1,030.2,22.7,0000.0,0012.47,0004.97,0004.13
2023-09-22 11:55:00,SystemResetWarning,0829.7,5.01,000.00,028.7,027.0,000.0,037.1,030.2,22.9,0000.0,0012.63,0005.05,0004.18
2023-09-22 11:56:00,SystemResetWarning,0829.7,5.01,000.00,028.7,027.0,000.0,037.1,030.2,23.2,0000.0,0012.54,0005.04,0004.21
2023-09-22 11:57:00,SystemResetWarning,0829.6,5.00,000.00,028.6,027.0,000.0,037.1,030.2,23.4,0000.0,0011.80,0005.06,0004.23
2023-09-22 11:58:00,SystemResetWarning,0829.7,4.99,000.00,028.6,027.0,000.0,037.1,030.1,23.5,0000.0,0011.77,0005.14,0004.25
2023-09-22 11:59:00,SystemResetWarning,0829.7,4.99,000.00,028.6,027.0,000.0,037.1,030.2,23.5,0000.0,0012.09,0005.17,0004.25
